Flag for United Arab Emirates Weather past 2 weeks in Ras al-Khaimah, Ras al-Khaimah, United Arab Emirates

Now
97 °F

Clear.


Feels Like: 99 °F
Forecast: 92 / 109 °F
Wind: 3 mph from Southwest

Location: Ras Al Khaimah International Airport

Current Time: Aug 29, 2015 at 9:45:52 PM

Latest Report: Aug 29, 2015 at 9:00 PM


Visibility: 10 mi

Pressure: 29.59 "Hg

Humidity: 34%

Dew point: 64 °F

Historic Weather in Ras al-Khaimah — Graph

°F

Ras al-Khaimah temperature yesterday

Maximum temperature yesterday: 106 °F (at 11:00 AM)
Minimum temperature yesterday: 81 °F (at 3:00 AM)
Average temperature yesterday: 94 °F

Past Weeks' High & Low Weather Summary

 TemperatureHumidityPressure
High113 °F (Aug 24, 12:00 PM)79% (Aug 19, 3:00 AM)29.68 "Hg (Aug 19, 3:00 AM)
Low81 °F (Aug 15, 6:00 AM)11% (Aug 27, 10:00 AM)29.50 "Hg (Aug 15, 4:00 PM)
Average96 °F39%29.57 "Hg
* Reported Aug 14 8:00 PM — Aug 29 8:00 PM, Ras al-Khaimah, Weather by CustomWeather, © 2015

Note: Actual official high and low records may vary slightly from our data, if they occured in-between our weather recording intervals... More about our weather records

Advertising

Ras al-Khaimah weather history for previous 24 hours

 ConditionsComfort  
Time TempWeatherWind HumidityBarometerVisibility
8:00 PM
Sat, Aug 29
99 °FClear.3 mph33%29.56 "Hg10 mi
7:00 PM102 °FClear.3 mph29%29.56 "Hg10 mi
6:00 PM104 °FSunny.9 mph29%29.56 "Hg10 mi
5:00 PM106 °FSunny.15 mph26%29.53 "Hg10 mi
4:00 PM108 °FSunny.17 mph30%29.53 "Hg10 mi
3:00 PM108 °FSunny.18 mph32%29.53 "Hg10 mi
2:00 PM109 °FSunny.14 mph30%29.56 "Hg10 mi
1:00 PM113 °FSunny.6 mph17%29.59 "Hg10 mi
11:00 AM108 °FSunny.14 mph25%29.62 "Hg10 mi
10:00 AM104 °FSunny.14 mph35%29.62 "Hg10 mi
9:00 AM99 °FClear.12 mph50%29.59 "Hg5 mi
8:00 AM91 °FHaze.No wind71%29.62 "Hg3 mi
7:00 AM84 °FHaze.No wind74%29.59 "Hg2 mi
6:00 AM82 °FHaze.5 mph79%29.56 "Hg2 mi
5:00 AM82 °FHaze.No wind74%29.56 "Hg2 mi
4:00 AM84 °FHaze.2 mph74%29.56 "Hg2 mi
3:00 AM86 °FHaze.2 mph75%29.56 "Hg2 mi
1:50 AM86 °FHaze.2 mph66%29.56 "Hg3 mi
1:00 AM88 °FClear.5 mph62%29.56 "Hg4 mi
12:00 AM90 °FClear.3 mph67%29.59 "Hg4 mi
11:00 PM
Fri, Aug 28
88 °FClear.3 mph59%29.59 "Hg4 mi
10:00 PM91 °FClear.2 mph52%29.59 "Hg4 mi
9:00 PM93 °FClear.No wind44%29.59 "Hg10 mi
Weather by CustomWeather, © 2015

See weather overviewHow to use our weather pages